AJM1FT MDPP-TNCM

Flight info

Callsign AJM1FT
Flight time 1h 14m
Altitude 35000
Route POKEG3C POKEG DCT PIXAR DCT KATOK M348 MEEGL DCT BQN RTE2 SJU RTE6 STT B520 PJM
Aircraft A321/M-SDE3FGHIRWY/LB1

Departure

Time 2026-04-24 19:52
Airport Gregorio Luperon International Airport (MDPP)

Arrival

Time 2026-04-24 21:06
Airport Princess Juliana International Airport (TNCM)
Time Latitude Longitude Altitude Speed Heading
2026-04-24 19:28 19.75582 -70.56527 34 ft 0 kts 124°
2026-04-24 19:42 19.75589 -70.56537 35 ft 4 kts 122°
2026-04-24 19:42 19.75603 -70.56561 32 ft 4 kts 122°
2026-04-24 19:42 19.75619 -70.56582 32 ft 4 kts 153°
2026-04-24 19:42 19.75638 -70.56589 32 ft 4 kts 179°
2026-04-24 19:43 19.75658 -70.56581 32 ft 4 kts 244°
2026-04-24 19:43 19.75666 -70.56556 35 ft 2 kts 253°
2026-04-24 19:43 19.75666 -70.56554 35 ft 0 kts 252°
2026-04-24 19:45 19.75664 -70.56562 35 ft 5 kts 252°
2026-04-24 19:45 19.75646 -70.56621 32 ft 10 kts 252°
2026-04-24 19:45 19.75625 -70.56694 34 ft 10 kts 253°
2026-04-24 19:46 19.75602 -70.56769 35 ft 11 kts 252°
2026-04-24 19:46 19.75579 -70.56847 35 ft 12 kts 252°
2026-04-24 19:46 19.75554 -70.56931 34 ft 12 kts 252°
2026-04-24 19:46 19.75530 -70.57018 34 ft 9 kts 258°
2026-04-24 19:47 19.75560 -70.57075 34 ft 10 kts 313°
2026-04-24 19:47 19.75611 -70.57132 34 ft 12 kts 314°
2026-04-24 19:47 19.75636 -70.57159 34 ft 0 kts 314°
2026-04-24 19:49 19.75641 -70.57165 34 ft 5 kts 314°
2026-04-24 19:49 19.75693 -70.57319 33 ft 14 kts 253°
2026-04-24 19:50 19.75545 -70.57838 36 ft 32 kts 253°
2026-04-24 19:50 19.75500 -70.57952 35 ft 7 kts 219°
2026-04-24 19:51 19.75513 -70.57941 34 ft 15 kts 70°
2026-04-24 19:51 19.75636 -70.57518 32 ft 103 kts 73°
2026-04-24 19:52 19.76265 -70.55336 814 ft 171 kts 75°
2026-04-24 19:52 19.76614 -70.54112 1534 ft 175 kts 75°
2026-04-24 19:52 19.76983 -70.52843 1854 ft 186 kts 74°
2026-04-24 19:52 19.77401 -70.51477 2005 ft 204 kts 66°
2026-04-24 19:53 19.78328 -70.50254 2190 ft 222 kts 45°
2026-04-24 19:53 19.79518 -70.49077 2349 ft 247 kts 44°
2026-04-24 19:53 19.82105 -70.46350 3605 ft 272 kts 44°
2026-04-24 19:54 19.83430 -70.44883 4555 ft 279 kts 45°
2026-04-24 19:54 19.84790 -70.43336 5219 ft 298 kts 49°
2026-04-24 19:54 19.85916 -70.41389 5625 ft 323 kts 65°
2026-04-24 19:54 19.86802 -70.39097 5986 ft 347 kts 68°
2026-04-24 19:55 19.87105 -70.38283 6182 ft 351 kts 68°
2026-04-24 19:55 19.88616 -70.34214 7067 ft 360 kts 68°
2026-04-24 19:55 19.89522 -70.31722 7645 ft 363 kts 69°
2026-04-24 19:55 19.90152 -70.29112 8129 ft 370 kts 81°
2026-04-24 19:56 19.90503 -70.26339 8289 ft 385 kts 83°
2026-04-24 19:56 19.90837 -70.23489 8725 ft 391 kts 83°
2026-04-24 19:56 19.91175 -70.20608 9238 ft 394 kts 83°
2026-04-24 19:56 19.91521 -70.17709 9765 ft 397 kts 83°
2026-04-24 19:57 19.91878 -70.14792 10219 ft 400 kts 83°
2026-04-24 19:57 19.92235 -70.11889 10718 ft 404 kts 83°
2026-04-24 19:57 19.92473 -70.08914 11176 ft 405 kts 93°
2026-04-24 19:57 19.92051 -70.05953 11588 ft 407 kts 102°
2026-04-24 19:58 19.91474 -70.02995 12020 ft 409 kts 103°
2026-04-24 19:58 19.90891 -70.00028 12449 ft 411 kts 103°
2026-04-24 19:58 19.90307 -69.97043 12850 ft 414 kts 103°
2026-04-24 19:58 19.89578 -69.94084 13229 ft 415 kts 113°
2026-04-24 19:59 19.88178 -69.91418 13586 ft 414 kts 127°
2026-04-24 19:59 19.86514 -69.88953 13911 ft 416 kts 128°
2026-04-24 19:59 19.84810 -69.86459 14205 ft 418 kts 128°
2026-04-24 19:59 19.83089 -69.83957 14491 ft 420 kts 128°
2026-04-24 20:00 19.81357 -69.81444 14777 ft 423 kts 128°
2026-04-24 20:00 19.79615 -69.78911 15059 ft 425 kts 128°
2026-04-24 20:00 19.77871 -69.76368 15348 ft 427 kts 128°
2026-04-24 20:00 19.76121 -69.73811 15624 ft 429 kts 128°
2026-04-24 20:01 19.74363 -69.71241 15898 ft 431 kts 128°
2026-04-24 20:01 19.72599 -69.68664 16173 ft 433 kts 128°
2026-04-24 20:01 19.70821 -69.66070 16451 ft 436 kts 128°
2026-04-24 20:01 19.69025 -69.63451 16629 ft 441 kts 128°
2026-04-24 20:02 19.67826 -69.61704 16711 ft 445 kts 128°
2026-04-24 20:02 19.65990 -69.59032 16886 ft 450 kts 128°
2026-04-24 20:02 19.64133 -69.56333 17143 ft 453 kts 128°
2026-04-24 20:02 19.61661 -69.52746 17587 ft 457 kts 129°
2026-04-24 20:03 19.59783 -69.50017 17919 ft 460 kts 129°
2026-04-24 20:03 19.57895 -69.47270 18236 ft 461 kts 128°
2026-04-24 20:03 19.56002 -69.44515 18521 ft 463 kts 129°
2026-04-24 20:03 19.54101 -69.41753 18764 ft 464 kts 129°
2026-04-24 20:04 19.52842 -69.39924 18923 ft 465 kts 129°
2026-04-24 20:04 19.50932 -69.37147 19164 ft 467 kts 129°
2026-04-24 20:04 19.49015 -69.34361 19401 ft 469 kts 129°
2026-04-24 20:04 19.47085 -69.31560 19635 ft 470 kts 129°
2026-04-24 20:05 19.45152 -69.28757 19884 ft 472 kts 129°
2026-04-24 20:05 19.43209 -69.25946 20088 ft 474 kts 129°
2026-04-24 20:05 19.41258 -69.23126 20326 ft 475 kts 129°
2026-04-24 20:05 19.39302 -69.20294 20554 ft 477 kts 129°
2026-04-24 20:06 19.37338 -69.17452 20765 ft 479 kts 129°
2026-04-24 20:06 19.35365 -69.14598 20978 ft 481 kts 130°
2026-04-24 20:06 19.33383 -69.11736 21199 ft 483 kts 130°
2026-04-24 20:06 19.31389 -69.08859 21427 ft 484 kts 130°
2026-04-24 20:07 19.30067 -69.06951 21575 ft 485 kts 130°
2026-04-24 20:07 19.27387 -69.03080 21880 ft 488 kts 130°
2026-04-24 20:07 19.25383 -69.00185 22089 ft 489 kts 130°
2026-04-24 20:07 19.23414 -68.97339 22732 ft 479 kts 130°
2026-04-24 20:08 19.21457 -68.94508 23285 ft 475 kts 130°
2026-04-24 20:08 19.19503 -68.91690 23551 ft 476 kts 131°
2026-04-24 20:08 19.17538 -68.88868 23754 ft 477 kts 131°
2026-04-24 20:08 19.15568 -68.86034 23965 ft 480 kts 130°
2026-04-24 20:09 19.13870 -68.82998 24371 ft 481 kts 120°
2026-04-24 20:09 19.12580 -68.79724 24664 ft 483 kts 115°
2026-04-24 20:09 19.11359 -68.76400 24891 ft 484 kts 115°
2026-04-24 20:09 19.10136 -68.73075 25089 ft 486 kts 115°
2026-04-24 20:10 19.08908 -68.69738 25303 ft 488 kts 115°
2026-04-24 20:10 19.07689 -68.66427 25501 ft 490 kts 115°
2026-04-24 20:10 19.06449 -68.63068 25694 ft 491 kts 115°
2026-04-24 20:10 19.05209 -68.59695 25906 ft 493 kts 115°
2026-04-24 20:11 19.03964 -68.56310 26103 ft 495 kts 115°
2026-04-24 20:11 19.02710 -68.52906 26301 ft 497 kts 115°
2026-04-24 20:11 19.01455 -68.49505 26473 ft 499 kts 115°
2026-04-24 20:11 19.00188 -68.46076 26654 ft 501 kts 115°
2026-04-24 20:12 18.98919 -68.42644 26834 ft 502 kts 115°
2026-04-24 20:12 18.97644 -68.39201 27008 ft 504 kts 115°
2026-04-24 20:12 18.96364 -68.35748 27175 ft 505 kts 115°
2026-04-24 20:12 18.95093 -68.32325 27333 ft 507 kts 115°
2026-04-24 20:13 18.93806 -68.28853 27485 ft 508 kts 115°
2026-04-24 20:13 18.92512 -68.25364 27643 ft 510 kts 115°
2026-04-24 20:13 18.91217 -68.21874 27792 ft 511 kts 115°
2026-04-24 20:13 18.89922 -68.18384 27975 ft 510 kts 115°
2026-04-24 20:14 18.88629 -68.14898 28177 ft 510 kts 115°
2026-04-24 20:14 18.87333 -68.11410 28373 ft 510 kts 115°
2026-04-24 20:14 18.86034 -68.07923 28566 ft 510 kts 115°
2026-04-24 20:14 18.84734 -68.04437 28753 ft 510 kts 115°
2026-04-24 20:15 18.83431 -68.00952 28935 ft 510 kts 115°
2026-04-24 20:15 18.82124 -67.97459 29119 ft 510 kts 115°
2026-04-24 20:15 18.80820 -67.93973 29305 ft 511 kts 115°
2026-04-24 20:15 18.79517 -67.90487 29490 ft 511 kts 115°
2026-04-24 20:16 18.78212 -67.87002 29679 ft 511 kts 115°
2026-04-24 20:16 18.76905 -67.83518 29861 ft 511 kts 115°
2026-04-24 20:16 18.75597 -67.80026 30037 ft 511 kts 115°
2026-04-24 20:16 18.74292 -67.76541 30182 ft 510 kts 115°
2026-04-24 20:17 18.72987 -67.73062 30348 ft 510 kts 115°
2026-04-24 20:17 18.70389 -67.66151 30663 ft 510 kts 116°
2026-04-24 20:17 18.69082 -67.62674 30799 ft 510 kts 116°
2026-04-24 20:18 18.66465 -67.55721 31103 ft 510 kts 116°
2026-04-24 20:18 18.65157 -67.52247 31274 ft 509 kts 116°
2026-04-24 20:18 18.63857 -67.48785 31444 ft 509 kts 115°
2026-04-24 20:19 18.62869 -67.45172 31588 ft 514 kts 107°
2026-04-24 20:19 18.62069 -67.41487 31733 ft 515 kts 107°
2026-04-24 20:19 18.61274 -67.37803 31846 ft 516 kts 107°
2026-04-24 20:19 18.60470 -67.34118 31920 ft 518 kts 107°
2026-04-24 20:20 18.58747 -67.26730 32082 ft 520 kts 108°
2026-04-24 20:20 18.56977 -67.19306 32226 ft 525 kts 104°
2026-04-24 20:21 18.56688 -67.15506 32299 ft 530 kts 92°
2026-04-24 20:21 18.56642 -67.11620 32375 ft 530 kts 96°
2026-04-24 20:21 18.55910 -67.03905 32520 ft 529 kts 102°
2026-04-24 20:22 18.54830 -66.96231 32661 ft 530 kts 102°
2026-04-24 20:22 18.53896 -66.88506 32840 ft 531 kts 99°
2026-04-24 20:23 18.53507 -66.84626 32946 ft 532 kts 99°
2026-04-24 20:23 18.53144 -66.80743 32965 ft 534 kts 98°
2026-04-24 20:23 18.52407 -66.72927 32959 ft 537 kts 99°
2026-04-24 20:24 18.51617 -66.65126 32958 ft 540 kts 99°
2026-04-24 20:24 18.50776 -66.57261 32959 ft 540 kts 99°
2026-04-24 20:25 18.49954 -66.49421 32965 ft 537 kts 99°
2026-04-24 20:25 18.49143 -66.41594 32970 ft 537 kts 99°
2026-04-24 20:26 18.48326 -66.33766 32971 ft 538 kts 99°
2026-04-24 20:26 18.47495 -66.25928 32971 ft 538 kts 99°
2026-04-24 20:27 18.46670 -66.18102 32983 ft 537 kts 100°
2026-04-24 20:27 18.45839 -66.10293 32983 ft 536 kts 100°
2026-04-24 20:28 18.45002 -66.02495 32976 ft 534 kts 100°
2026-04-24 20:28 18.43792 -65.94860 32974 ft 530 kts 106°
2026-04-24 20:29 18.42238 -65.87229 32981 ft 530 kts 106°
2026-04-24 20:29 18.40708 -65.79688 32988 ft 529 kts 106°
2026-04-24 20:30 18.39167 -65.72113 32995 ft 529 kts 106°
2026-04-24 20:30 18.37616 -65.64541 33003 ft 528 kts 106°
2026-04-24 20:31 18.36060 -65.56975 33003 ft 528 kts 106°
2026-04-24 20:31 18.34512 -65.49430 33003 ft 528 kts 106°
2026-04-24 20:32 18.32962 -65.41881 33001 ft 527 kts 106°
2026-04-24 20:32 18.31708 -65.34270 33001 ft 533 kts 95°
2026-04-24 20:33 18.31616 -65.26462 32992 ft 534 kts 94°
2026-04-24 20:33 18.31497 -65.18709 32994 ft 533 kts 95°
2026-04-24 20:34 18.31216 -65.10919 32998 ft 532 kts 96°
2026-04-24 20:34 18.30885 -65.03128 32997 ft 532 kts 96°
2026-04-24 20:35 18.30590 -64.95336 32990 ft 532 kts 95°
2026-04-24 20:35 18.30456 -64.91457 32840 ft 528 kts 95°
2026-04-24 20:35 18.30322 -64.87602 32584 ft 526 kts 95°
2026-04-24 20:36 18.30183 -64.83754 32348 ft 526 kts 95°
2026-04-24 20:36 18.30039 -64.79907 32123 ft 525 kts 95°
2026-04-24 20:36 18.29892 -64.76079 31878 ft 523 kts 95°
2026-04-24 20:36 18.29747 -64.72260 31579 ft 521 kts 95°
2026-04-24 20:37 18.29607 -64.68463 30749 ft 521 kts 94°
2026-04-24 20:37 18.29405 -64.64693 29775 ft 522 kts 99°
2026-04-24 20:37 18.28827 -64.60935 28635 ft 522 kts 102°
2026-04-24 20:37 18.28208 -64.57149 27384 ft 527 kts 102°
2026-04-24 20:38 18.27576 -64.53334 26230 ft 529 kts 102°
2026-04-24 20:38 18.26940 -64.49523 25232 ft 527 kts 102°
2026-04-24 20:38 18.26315 -64.45753 24491 ft 519 kts 102°
2026-04-24 20:38 18.25700 -64.42021 23688 ft 515 kts 102°
2026-04-24 20:39 18.25095 -64.38331 22865 ft 509 kts 102°
2026-04-24 20:39 18.24493 -64.34682 22068 ft 502 kts 102°
2026-04-24 20:39 18.23900 -64.31092 21337 ft 495 kts 102°
2026-04-24 20:39 18.23317 -64.27573 20419 ft 493 kts 102°
2026-04-24 20:40 18.22731 -64.24041 19652 ft 487 kts 102°
2026-04-24 20:40 18.22150 -64.20553 18928 ft 481 kts 102°
2026-04-24 20:40 18.21574 -64.17104 18220 ft 475 kts 101°
2026-04-24 20:40 18.21005 -64.13708 17430 ft 468 kts 101°
2026-04-24 20:41 18.20442 -64.10361 16686 ft 461 kts 101°
2026-04-24 20:41 18.19886 -64.07062 15980 ft 455 kts 101°
2026-04-24 20:41 18.19341 -64.03813 15285 ft 448 kts 101°
2026-04-24 20:41 18.18809 -64.00605 14591 ft 441 kts 101°
2026-04-24 20:42 18.18288 -63.97450 13882 ft 435 kts 101°
2026-04-24 20:42 18.17771 -63.94350 13096 ft 428 kts 101°
2026-04-24 20:42 18.17257 -63.91290 12299 ft 422 kts 101°
2026-04-24 20:42 18.16747 -63.88276 11507 ft 416 kts 101°
2026-04-24 20:43 18.16250 -63.85345 10753 ft 410 kts 101°
2026-04-24 20:43 18.15750 -63.82401 10206 ft 407 kts 101°
2026-04-24 20:43 18.15256 -63.79475 10016 ft 406 kts 101°
2026-04-24 20:43 18.14766 -63.76563 9700 ft 401 kts 101°
2026-04-24 20:44 18.14286 -63.73710 9146 ft 390 kts 101°
2026-04-24 20:44 18.13827 -63.70974 9010 ft 370 kts 101°
2026-04-24 20:44 18.13390 -63.68377 8888 ft 352 kts 100°
2026-04-24 20:44 18.12850 -63.65834 8797 ft 367 kts 109°
2026-04-24 20:45 18.12041 -63.63249 8716 ft 376 kts 109°
2026-04-24 20:45 18.11237 -63.60698 8627 ft 358 kts 109°
2026-04-24 20:45 18.10477 -63.58289 8604 ft 336 kts 109°
2026-04-24 20:45 18.09766 -63.56026 8601 ft 316 kts 109°
2026-04-24 20:46 18.09100 -63.53896 8600 ft 297 kts 109°
2026-04-24 20:46 18.08477 -63.51908 8500 ft 284 kts 110°
2026-04-24 20:46 18.07874 -63.49982 8372 ft 271 kts 109°
2026-04-24 20:46 18.07300 -63.48146 8256 ft 259 kts 109°
2026-04-24 20:47 18.06747 -63.46383 8074 ft 248 kts 109°
2026-04-24 20:47 18.06221 -63.44707 7869 ft 236 kts 110°
2026-04-24 20:47 18.05716 -63.43100 7530 ft 228 kts 109°
2026-04-24 20:47 18.05226 -63.41542 7130 ft 222 kts 109°
2026-04-24 20:48 18.04744 -63.40015 6621 ft 218 kts 109°
2026-04-24 20:48 18.04273 -63.38522 6191 ft 209 kts 109°
2026-04-24 20:48 18.03836 -63.37130 5941 ft 193 kts 109°
2026-04-24 20:48 18.03432 -63.35843 5624 ft 179 kts 109°
2026-04-24 20:49 18.03050 -63.34635 5258 ft 170 kts 109°
2026-04-24 20:49 18.02681 -63.33468 4855 ft 168 kts 109°
2026-04-24 20:49 18.02310 -63.32296 4359 ft 170 kts 109°
2026-04-24 20:49 18.01939 -63.31117 3882 ft 170 kts 108°
2026-04-24 20:50 18.01624 -63.29947 3495 ft 164 kts 101°
2026-04-24 20:50 18.01554 -63.28766 3108 ft 161 kts 88°
2026-04-24 20:50 18.01699 -63.27609 2728 ft 158 kts 82°
2026-04-24 20:50 18.01863 -63.26481 2384 ft 154 kts 83°
2026-04-24 20:51 18.02022 -63.25380 2108 ft 149 kts 82°
2026-04-24 20:51 18.02175 -63.24314 1864 ft 146 kts 82°
2026-04-24 20:51 18.02326 -63.23261 1746 ft 145 kts 83°
2026-04-24 20:51 18.02475 -63.22228 1705 ft 146 kts 82°
2026-04-24 20:52 18.02626 -63.21178 1714 ft 145 kts 84°
2026-04-24 20:52 18.02777 -63.20119 1636 ft 149 kts 82°
2026-04-24 20:52 18.02927 -63.19062 1414 ft 145 kts 83°
2026-04-24 20:52 18.03074 -63.18028 1208 ft 142 kts 81°
2026-04-24 20:53 18.03227 -63.17006 1036 ft 142 kts 82°
2026-04-24 20:53 18.03387 -63.15979 861 ft 143 kts 81°
2026-04-24 20:53 18.03542 -63.14954 662 ft 142 kts 83°
2026-04-24 20:53 18.03683 -63.13915 543 ft 150 kts 85°
2026-04-24 20:54 18.03836 -63.12752 1117 ft 166 kts 82°
2026-04-24 20:54 18.03770 -63.11537 1906 ft 172 kts 109°
2026-04-24 20:54 18.03422 -63.10773 2109 ft 181 kts 120°
2026-04-24 20:54 18.02666 -63.09621 2315 ft 200 kts 125°
2026-04-24 20:55 18.01813 -63.08374 2477 ft 221 kts 125°
2026-04-24 20:55 18.00551 -63.06617 2958 ft 230 kts 137°
2026-04-24 20:55 17.99150 -63.05831 3323 ft 233 kts 169°
2026-04-24 20:55 17.97545 -63.05953 3687 ft 236 kts 201°
2026-04-24 20:56 17.96595 -63.06548 3919 ft 239 kts 221°
2026-04-24 20:56 17.95663 -63.07984 3998 ft 241 kts 249°
2026-04-24 20:56 17.95176 -63.09672 4005 ft 242 kts 254°
2026-04-24 20:56 17.94768 -63.11391 4006 ft 242 kts 255°
2026-04-24 20:57 17.94368 -63.13105 4011 ft 242 kts 255°
2026-04-24 20:57 17.93970 -63.14820 4010 ft 241 kts 255°
2026-04-24 20:57 17.93575 -63.16507 4012 ft 241 kts 255°
2026-04-24 20:57 17.93175 -63.18222 4013 ft 242 kts 256°
2026-04-24 20:58 17.92780 -63.19943 4010 ft 242 kts 255°
2026-04-24 20:58 17.92386 -63.21662 4012 ft 243 kts 256°
2026-04-24 20:58 17.91994 -63.23385 4000 ft 244 kts 255°
2026-04-24 20:58 17.91595 -63.25121 3746 ft 242 kts 255°
2026-04-24 20:59 17.91199 -63.26840 3499 ft 242 kts 255°
2026-04-24 20:59 17.90804 -63.28547 3277 ft 239 kts 255°
2026-04-24 20:59 17.90458 -63.30218 3094 ft 229 kts 265°
2026-04-24 20:59 17.90748 -63.31818 3017 ft 224 kts 297°
2026-04-24 21:00 17.91723 -63.33063 3008 ft 221 kts 325°
2026-04-24 21:00 17.93119 -63.33677 3014 ft 219 kts 353°
2026-04-24 21:00 17.94613 -63.33536 3018 ft 216 kts 22°
2026-04-24 21:00 17.95929 -63.32812 3022 ft 214 kts 32°
2026-04-24 21:01 17.97216 -63.32031 2992 ft 215 kts 31°
2026-04-24 21:01 17.98498 -63.31257 2867 ft 207 kts 32°
2026-04-24 21:01 17.99705 -63.30530 2763 ft 193 kts 32°
2026-04-24 21:01 18.00694 -63.29681 2675 ft 176 kts 50°
2026-04-24 21:02 18.01359 -63.28645 2550 ft 168 kts 66°
2026-04-24 21:02 18.01719 -63.27495 2402 ft 165 kts 81°
2026-04-24 21:02 18.01885 -63.26316 2253 ft 164 kts 83°
2026-04-24 21:02 18.02055 -63.25128 2102 ft 164 kts 82°
2026-04-24 21:03 18.02224 -63.23945 1963 ft 163 kts 83°
2026-04-24 21:03 18.02386 -63.22783 1834 ft 162 kts 83°
2026-04-24 21:03 18.02549 -63.21595 1829 ft 162 kts 82°
2026-04-24 21:03 18.02711 -63.20438 1740 ft 163 kts 83°
2026-04-24 21:04 18.02878 -63.19257 1579 ft 163 kts 83°
2026-04-24 21:04 18.03042 -63.18097 1337 ft 158 kts 81°
2026-04-24 21:04 18.03239 -63.16999 1140 ft 148 kts 79°
2026-04-24 21:04 18.03417 -63.15952 887 ft 143 kts 81°
2026-04-24 21:05 18.03550 -63.14928 664 ft 143 kts 83°
2026-04-24 21:05 18.03679 -63.13894 453 ft 142 kts 85°
2026-04-24 21:05 18.03815 -63.12859 279 ft 143 kts 84°
2026-04-24 21:05 18.03961 -63.11826 42 ft 142 kts 85°
2026-04-24 21:06 18.04089 -63.10903 21 ft 95 kts 81°
2026-04-24 21:06 18.04148 -63.10540 21 ft 12 kts 68°
2026-04-24 21:06 18.04147 -63.10476 22 ft 7 kts 159°
2026-04-24 21:06 18.04138 -63.10512 22 ft 10 kts 272°
2026-04-24 21:07 18.04132 -63.10624 22 ft 21 kts 262°
2026-04-24 21:07 18.04105 -63.10816 21 ft 33 kts 261°
2026-04-24 21:07 18.04067 -63.11075 22 ft 36 kts 261°
2026-04-24 21:07 18.04048 -63.11251 22 ft 8 kts 282°
2026-04-24 21:08 18.04084 -63.11287 21 ft 8 kts 338°
2026-04-24 21:08 18.04165 -63.11300 21 ft 13 kts 352°
2026-04-24 21:08 18.04242 -63.11339 21 ft 12 kts 319°
2026-04-24 21:08 18.04306 -63.11358 21 ft 6 kts 352°
2026-04-24 21:09 18.04328 -63.11362 21 ft 1 kts 352°